Location: Saratoga Springs
(43.0831°N, 73.7850°W)
Time: 11:12:45
(UTC-04:00)

Vanguard 1 Rocket - Pass Details

Date: 23 April 2024
Orbit: 651 x 4220 km, 34.3° (Epoch: 19 May)

Event Time Altitude Azimuth Distance (km) Brightness Sun altitude
Rises 20:41:10 0° 255° (WSW) 3,132 11.0 -9.8°
Reaches altitude 10° 20:43:17 10° 247° (WSW) 2,366 10.1 -10.1°
Maximum altitude 20:48:18 40° 178° (S) 1,511 8.3 -10.9°
Enters shadow 20:55:02 14° 116° (ESE) 3,366 9.6 -12.0°
